INTELSAT 17 (IS-17)

Last updated on Sept. 20, 2020, 5:45 a.m. UTC

1 37238U 10065B   20263.60382317 -.00000017  00000-0  00000+0 0  9996
2 37238   0.0253 220.0336 0002892 328.8990  93.4070  1.00272655 35897
UTC
Height (km)
Latitude
Longitude
Inclination
Orbital Period
UTC large
Height (km)
Speed (km/s)
/
Latitude / Longitude
Inclination (degrees)
Orbital Period (minutes)
Azimuth
Elevation
Range (km)
Doppler Factor
iOS Compass Heading
iOS Angle

Next 30 passes for location: Hong Kong

Rise time Rise Azimuth (degrees) Set time Set Azimuth (degrees) Duration Max altitude (degrees)

No matching passes for this satellites